Flag for Canada Weather past 2 weeks in Saint-Jérôme, Quebec, Canada

Now
43 °F

Passing clouds.


Feels Like: 39 °F
Forecast: 38 / 54 °F
Wind: 7 mph from North

Location: Montreal / Mirabel

Current Time: Sep 18, 2014 at 7:59:46 AM

Latest Report: Sep 18, 2014 at 7:00 AM


Visibility: 45 mi

Pressure: 30.05 "Hg

Humidity: 93%

Dew point: 41 °F

Location of Saint-JérômeLocation

Historic Weather in Saint-Jérôme — Graph

°F

Saint-Jérôme temperature yesterday

Maximum temperature yesterday: 59 °F (at 4:00 PM)
Minimum temperature yesterday: 43 °F (at 7:00 AM)
Average temperature yesterday: 52 °F

Past Weeks' High & Low Weather Summary

 TemperatureHumidityPressure
High84 °F (Sep 5, 3:00 PM)100% (Sep 3, 7:00 AM)30.37 "Hg (Sep 3, 7:00 AM)
Low39 °F (Sep 15, 1:00 AM)36% (Sep 9, 2:00 PM)29.51 "Hg (Sep 11, 12:00 PM)
Average59 °F79%30.06 "Hg
* Reported Sep 3 7:00 AM — Sep 18 7:00 AM, Saint-Jérôme, Weather by CustomWeather, © 2014

Note: Actual official high and low records may vary slightly from our data, if they occured in-between our weather recording intervals... More about our weather records

Advertising

Saint-Jérôme weather history for previous 24 hours

 ConditionsComfort  
Time TempWeatherWind HumidityBarometerVisibility
7:00 AM
Sep 18
43 °FPassing clouds.7 mph93%30.05 "Hg45 mi
6:00 AM46 °FPartly cloudy.8 mph82%30.01 "Hg25 mi
5:00 AM48 °FLow clouds.6 mph87%29.99 "Hg25 mi
4:00 AM50 °FMostly cloudy.2 mph94%29.96 "Hg25 mi
3:00 AM50 °FMostly cloudy.No wind94%29.95 "Hg25 mi
2:00 AM52 °FLow clouds.2 mph94%29.94 "Hg25 mi
1:00 AM52 °FOvercast.2 mph94%29.92 "Hg25 mi
12:00 AM55 °FLight rain. Low clouds.2 mph94%29.91 "Hg15 mi
11:00 PM
Sep 17
55 °FLight rain. Low clouds.7 mph94%29.90 "Hg15 mi
10:00 PM55 °FSprinkles. Mostly cloudy.5 mph88%29.90 "Hg15 mi
9:00 PM57 °FSprinkles. Overcast.7 mph82%29.90 "Hg15 mi
8:00 PM57 °FSprinkles. Mostly cloudy.6 mph82%29.88 "Hg15 mi
7:00 PM57 °FMore clouds than sun.5 mph82%29.89 "Hg25 mi
6:00 PM59 °FMostly cloudy.5 mph77%29.90 "Hg45 mi
5:00 PM59 °FMostly cloudy.6 mph72%29.91 "Hg45 mi
4:00 PM59 °FMostly cloudy.5 mph72%29.93 "Hg45 mi
3:00 PM57 °FOvercast.3 mph77%29.94 "Hg45 mi
2:00 PM57 °FMore clouds than sun.7 mph72%29.95 "Hg45 mi
1:00 PM57 °FCloudy.9 mph72%29.97 "Hg45 mi
12:00 PM54 °FPartly sunny.6 mph82%29.99 "Hg45 mi
11:00 AM50 °FPartly sunny.5 mph88%30.00 "Hg45 mi
10:00 AM48 °FBroken clouds.8 mph94%30.01 "Hg45 mi
9:00 AM46 °FPartly sunny.6 mph93%30.00 "Hg45 mi
8:00 AM46 °FPartly sunny.6 mph93%29.98 "Hg35 mi
7:52 AM46 °FPartly sunny.6 mph87%29.98 "Hg35 mi
7:00 AM43 °FPassing clouds.3 mph100%29.98 "Hg45 mi
Weather by CustomWeather, © 2014

See weather overviewHow to use our weather pages